Total_Precipitation_Accumulation
0.41 0.40 0.40 0.44 0.63 0.62 0.46 0.45 0.84 1.03 1.08 0.93 1.02 1.14 1.10 1.15 1.04 1.08 1.11 0.90 0.73 0.56
0.61 0.68 0.81 0.78 0.81 0.77 0.54 0.38 0.45 0.50 0.82 0.97 1.12 1.41 1.54 1.28 1.08 1.05 0.98 0.85 0.78 0.61
0.86 0.86 0.89 0.77 0.90 0.81 0.76 0.73 0.77 0.68 0.76 1.00 1.32 1.43 1.47 1.20 0.99 1.06 0.99 0.99 1.00 0.77
1.00 1.13 1.13 1.09 1.07 1.09 0.98 1.00 0.94 0.94 0.77 0.65 0.74 1.12 1.43 1.50 1.37 1.40 1.34 1.21 1.12 0.88
1.40 1.70 2.06 2.10 1.79 1.91 1.85 1.61 1.42 1.04 0.68 0.50 0.39 0.58 1.21 1.53 1.44 1.19 1.31 1.46 1.31 1.14
1.39 1.75 1.58 1.21 0.99 0.86 0.81 0.78 0.77 0.71 0.60 0.44 0.23 0.20 0.48 0.92 1.34 1.21 0.98 1.19 1.45 1.02
1.37 1.28 1.03 0.87 0.78 0.65 0.57 0.35 0.36 0.49 0.58 0.53 0.28 0.24 0.35 0.44 0.71 1.13 1.03 0.94 0.94 0.98
1.56 1.42 1.52 1.53 1.41 0.88 0.76 0.65 0.51 0.43 0.34 0.44 0.34 0.33 0.37 0.41 0.52 0.76 1.01 0.93 0.91 0.79
1.97 1.28 1.34 1.60 1.81 1.35 0.93 0.99 0.69 0.76 0.55 0.50 0.46 0.66 0.54 0.38 0.27 0.30 0.45 0.69 0.71 0.84
1.38 1.79 1.38 1.55 1.66 1.90 1.57 1.24 1.19 0.89 0.79 0.68 0.63 0.88 0.60 0.52 0.25 0.28 0.27 0.31 0.43 0.53
0.78 1.29 1.63 1.31 1.24 1.29 1.45 1.54 1.42 1.05 0.85 0.60 0.49 0.70 0.68 0.78 0.35 0.29 0.29 0.24 0.27 0.34
1.05 1.07 1.16 1.42 1.28 1.37 1.27 1.26 1.34 1.18 0.85 0.71 0.61 0.84 0.71 0.62 0.25 0.22 0.30 0.38 0.47 0.55
0.95 1.13 1.35 1.65 1.77 1.67 1.53 1.28 1.15 1.15 1.09 1.25 0.88 1.14 0.90 0.72 0.31 0.28 0.27 0.33 0.54 1.04
0.80 1.03 1.19 1.23 1.39 1.63 1.81 1.77 1.48 1.36 1.26 1.16 1.27 1.32 1.34 1.08 0.64 0.51 0.51 0.56 0.59 0.76